M I D A S
Marine Information and Data Acquisition System
Tripno 1912 of the Zeeleeuw from 2010-07-01 05:14:20 to 2010-07-01 14:13:49
Back to CruiseResearch ActivitiesStationsMapUnderway DataData graphs

EquipmentUnitsComments
TimeDGPSUTC
LatitudeDGPSDM.mWGS84
LongitudeDGPSDM.mWGS84
SpeedMeteo Stationm/sRelative wind speed
DirectionMeteo StationdegRelative wind direction
TemperatureMeteo Stationdeg CelciusAir temperature
PressureMeteo StationPaAtmospheric pressure
HumidityMeteo Station%Relative humidity
Missing or incorrect values are displayed as -999
Metereological data collected by the RV Zeeleeuw from 2010-07-01 05:06:50 to 2010-07-01 14:21:27
                                                                                    Next 1000 lines
Time Latitude Longitude Speed Direction Temperature Pressure Humidity
2010-07-01 05:07:00 51°13.662 2°55.958 0.2 28 18 101550 44
2010-07-01 05:07:05 51°13.662 2°55.956 0.2 33 18 101550 44
2010-07-01 05:07:10 51°13.663 2°55.953 0.2 28 18 101550 44
2010-07-01 05:07:15 51°13.663 2°55.951 1.4 40 18 101550 44
2010-07-01 05:07:20 51°13.664 2°55.947 1.4 83 18 101550 44
2010-07-01 05:07:24 51°13.665 2°55.945 0.7 34 18 101550 44
2010-07-01 05:07:31 51°13.666 2°55.94 1.6 29 18 101550 45
2010-07-01 05:07:37 51°13.667 2°55.935 1.5 36 18 101550 45
2010-07-01 05:07:42 51°13.668 2°55.931 1.3 23 18 101550 45
2010-07-01 05:07:48 51°13.67 2°55.926 2 39 18 101550 45
2010-07-01 05:07:54 51°13.671 2°55.92 1.8 20 18 101550 44
2010-07-01 05:07:59 51°13.672 2°55.916 1.9 38 18 101550 44
2010-07-01 05:08:04 51°13.673 2°55.91 1.8 22 18 101550 45
2010-07-01 05:08:08 51°13.674 2°55.906 1.9 35 18 101550 45
2010-07-01 05:08:14 51°13.676 2°55.899 1.9 26 18 101540 45
2010-07-01 05:08:19 51°13.677 2°55.893 1.7 34 18 101540 45
2010-07-01 05:08:24 51°13.679 2°55.887 2.1 23 18 101550 44
2010-07-01 05:08:28 51°13.68 2°55.883 2.4 34 18 101550 44
2010-07-01 05:08:34 51°13.681 2°55.875 1.7 80 18 101550 46
2010-07-01 05:08:39 51°13.683 2°55.868 2.2 34 18 101550 46
2010-07-01 05:08:44 51°13.684 2°55.861 2.3 27 18 101550 44
2010-07-01 05:08:48 51°13.685 2°55.856 2.6 37 18 101550 44
2010-07-01 05:08:54 51°13.686 2°55.847 2.4 25 18 101550 46
2010-07-01 05:08:59 51°13.688 2°55.84 2.5 34 18 101550 46
2010-07-01 05:09:04 51°13.689 2°55.833 2.9 21 18.1 101550 46
2010-07-01 05:09:08 51°13.69 2°55.827 3.5 39 18.1 101550 46
2010-07-01 05:09:13 51°13.691 2°55.819 2.3 21 18.1 101550 44
2010-07-01 05:09:18 51°13.692 2°55.812 3.1 34 18.1 101550 44
2010-07-01 05:09:24 51°13.694 2°55.802 2.5 83 18.1 101550 44
2010-07-01 05:09:28 51°13.695 2°55.796 1.3 32 18.1 101550 44
2010-07-01 05:09:34 51°13.696 2°55.787 1.2 22 18.1 101550 45
2010-07-01 05:09:39 51°13.697 2°55.779 3.3 35 18.1 101550 45
2010-07-01 05:09:44 51°13.698 2°55.771 3.8 28 18.1 101550 43
2010-07-01 05:09:48 51°13.698 2°55.765 3.6 32 18.1 101550 43
2010-07-01 05:09:54 51°13.699 2°55.757 3.4 20 18.1 101550 45
2010-07-01 05:09:59 51°13.699 2°55.75 2.7 33 18.1 101550 45
2010-07-01 05:10:03 51°13.7 2°55.745 2.3 29 18.1 101540 45
2010-07-01 05:10:08 51°13.7 2°55.739 1.9 33 18.1 101540 45
2010-07-01 05:10:14 51°13.7 2°55.734 1.5 28 18.1 101550 43
2010-07-01 05:10:19 51°13.7 2°55.729 1.3 39 18.1 101550 43
2010-07-01 05:10:23 51°13.7 2°55.726 1.8 21 18.1 101550 45
2010-07-01 05:10:28 51°13.7 2°55.723 0.9 35 18.1 101550 45
2010-07-01 05:10:33 51°13.7 2°55.72 2 76 18.1 101540 44
2010-07-01 05:10:38 51°13.7 2°55.718 1.9 35 18.1 101540 44
2010-07-01 05:10:43 51°13.701 2°55.716 2.3 30 18.1 101540 44
2010-07-01 05:10:48 51°13.701 2°55.715 2.1 39 18.1 101540 44
2010-07-01 05:10:52 51°13.701 2°55.715 2 21 18.1 101540 44
2010-07-01 05:10:57 51°13.701 2°55.714 1.5 35 18.1 101540 44
2010-07-01 05:11:02 51°13.702 2°55.715 0.8 21 18.1 101540 45
2010-07-01 05:11:07 51°13.703 2°55.715 0.6 33 18.1 101540 45
2010-07-01 05:11:12 51°13.704 2°55.716 0.5 28 18.1 101550 45
2010-07-01 05:11:16 51°13.705 2°55.717 0.4 32 18.1 101550 45
2010-07-01 05:11:21 51°13.706 2°55.719 0.2 25 18.1 101540 44
2010-07-01 05:11:26 51°13.708 2°55.72 0.1 41 18.1 101540 44
2010-07-01 05:11:31 51°13.71 2°55.722 0.3 23 18.1 101540 44
2010-07-01 05:11:36 51°13.713 2°55.724 1.1 264 18.1 101540 44
2010-07-01 05:11:41 51°13.716 2°55.725 1 326 18.1 101540 44
2010-07-01 05:11:46 51°13.72 2°55.726 0.4 237 18.1 101540 44
2010-07-01 05:11:50 51°13.723 2°55.726 0.5 26 18.1 101540 44
2010-07-01 05:11:55 51°13.727 2°55.726 1.4 240 18.1 101540 44
2010-07-01 05:12:00 51°13.731 2°55.725 1.3 279 18.1 101540 46
2010-07-01 05:12:05 51°13.735 2°55.724 1.4 37 18.1 101540 46
2010-07-01 05:12:10 51°13.74 2°55.722 1.3 317 18.1 101540 45
2010-07-01 05:12:15 51°13.745 2°55.718 2.2 316 18.1 101540 45
2010-07-01 05:12:20 51°13.749 2°55.714 2.1 318 18.1 101540 44
2010-07-01 05:12:25 51°13.755 2°55.71 1.8 324 18.1 101540 44
2010-07-01 05:12:30 51°13.76 2°55.705 2.6 277 18.1 101540 46
2010-07-01 05:12:35 51°13.766 2°55.7 3.4 316 18.1 101540 46
2010-07-01 05:12:40 51°13.772 2°55.694 3.7 23 18.1 101540 44
2010-07-01 05:12:44 51°13.776 2°55.69 3 37 18.1 101540 44
2010-07-01 05:12:50 51°13.784 2°55.682 3.2 279 18.1 101540 44
2010-07-01 05:12:55 51°13.791 2°55.676 3.2 317 18.1 101540 44
2010-07-01 05:13:00 51°13.798 2°55.669 3.1 27 18.1 101540 44
2010-07-01 05:13:05 51°13.805 2°55.663 1.6 41 18.1 101540 44
2010-07-01 05:13:10 51°13.812 2°55.656 2.8 278 18.1 101540 44
2010-07-01 05:13:15 51°13.82 2°55.65 3.3 319 18.1 101540 44
2010-07-01 05:13:20 51°13.827 2°55.643 3.7 27 18.1 101540 43
2010-07-01 05:13:25 51°13.835 2°55.636 3.8 39 18.1 101540 43
2010-07-01 05:13:30 51°13.843 2°55.63 3.5 25 18.1 101540 44
2010-07-01 05:13:35 51°13.851 2°55.623 3 39 18.1 101540 44
2010-07-01 05:13:40 51°13.86 2°55.617 3.1 318 18.1 101540 45
2010-07-01 05:13:45 51°13.868 2°55.61 2.8 319 18.1 101540 45
2010-07-01 05:13:50 51°13.876 2°55.603 2.4 280 18.1 101540 45
2010-07-01 05:13:55 51°13.884 2°55.596 2.9 31 18.1 101540 45
2010-07-01 05:14:00 51°13.893 2°55.59 3.7 278 18.1 101540 44
2010-07-01 05:14:05 51°13.901 2°55.583 3.2 31 18.1 101540 44
2010-07-01 05:14:10 51°13.91 2°55.576 4 26 18.1 101540 44
2010-07-01 05:14:15 51°13.918 2°55.569 3.8 32 18.1 101540 44
2010-07-01 05:14:20 51°13.927 2°55.562 3.2 28 18.1 101540 44
2010-07-01 05:14:25 51°13.936 2°55.556 3.3 237 18.1 101540 44
2010-07-01 05:14:30 51°13.944 2°55.549 2.9 279 18.1 101540 44
2010-07-01 05:14:35 51°13.953 2°55.543 2.8 319 18.1 101540 44
2010-07-01 05:14:40 51°13.962 2°55.537 3.2 317 18.1 101540 45
2010-07-01 05:14:45 51°13.971 2°55.53 3.4 39 18.1 101540 45
2010-07-01 05:14:50 51°13.98 2°55.524 4.1 283 18.1 101540 44
2010-07-01 05:14:55 51°13.989 2°55.518 4.1 318 18.1 101540 44
2010-07-01 05:15:00 51°13.998 2°55.512 4.8 278 18.1 101540 44
2010-07-01 05:15:04 51°14.006 2°55.507 4.1 34 18.1 101540 44
2010-07-01 05:15:10 51°14.017 2°55.5 4 280 18.1 101540 44
2010-07-01 05:15:15 51°14.026 2°55.493 3.9 315 18.1 101540 44
2010-07-01 05:15:20 51°14.036 2°55.487 4.1 316 18.1 101530 44
2010-07-01 05:15:25 51°14.045 2°55.481 3 321 18.1 101530 44
2010-07-01 05:15:30 51°14.054 2°55.475 3.2 317 18.1 101540 45
2010-07-01 05:15:35 51°14.064 2°55.468 3.4 318 18.1 101540 45
2010-07-01 05:15:40 51°14.073 2°55.462 3.2 317 18.1 101530 44
2010-07-01 05:15:45 51°14.083 2°55.455 3.8 318 18.1 101530 44
2010-07-01 05:15:50 51°14.092 2°55.449 3.5 321 18.1 101530 44
2010-07-01 05:15:55 51°14.102 2°55.442 3.6 318 18.1 101530 44
2010-07-01 05:16:00 51°14.111 2°55.435 4.3 283 18.1 101540 44
2010-07-01 05:16:05 51°14.121 2°55.427 3.7 322 18.1 101540 44
2010-07-01 05:16:10 51°14.13 2°55.42 4 320 18.1 101530 44
2010-07-01 05:16:15 51°14.14 2°55.412 5.1 315 18.1 101530 44
2010-07-01 05:16:20 51°14.149 2°55.404 4.5 278 18.1 101540 45
2010-07-01 05:16:24 51°14.156 2°55.397 4.7 34 18.1 101540 45
2010-07-01 05:16:30 51°14.168 2°55.387 5.7 23 18.1 101530 46
2010-07-01 05:16:35 51°14.177 2°55.379 5.2 235 18.1 101530 46
2010-07-01 05:16:40 51°14.186 2°55.37 5.1 26 18.1 101530 46
2010-07-01 05:16:45 51°14.195 2°55.361 4.6 231 18.1 101530 46
2010-07-01 05:16:50 51°14.204 2°55.352 4.9 281 18.1 101530 44
2010-07-01 05:16:55 51°14.214 2°55.343 5.6 39 18.1 101530 44
2010-07-01 05:17:00 51°14.223 2°55.333 6.4 21 18.1 101530 44
2010-07-01 05:17:04 51°14.23 2°55.326 4.7 232 18.1 101530 44
2010-07-01 05:17:10 51°14.241 2°55.315 6 284 18.1 101530 45
2010-07-01 05:17:15 51°14.25 2°55.305 5.8 31 18.1 101530 45
2010-07-01 05:17:20 51°14.26 2°55.296 5.4 285 18.1 101530 44
2010-07-01 05:17:25 51°14.269 2°55.286 5.8 234 18.1 101530 44
2010-07-01 05:17:30 51°14.279 2°55.276 5.7 24 18.1 101530 44
2010-07-01 05:17:35 51°14.288 2°55.266 5.3 234 18.1 101530 44
2010-07-01 05:17:40 51°14.298 2°55.256 5.3 23 18.1 101530 46
2010-07-01 05:17:44 51°14.306 2°55.248 5.8 35 18.1 101530 46
2010-07-01 05:17:50 51°14.317 2°55.235 5.9 23 18.1 101530 45
2010-07-01 05:17:55 51°14.327 2°55.224 5.6 237 18.1 101530 45
2010-07-01 05:18:00 51°14.337 2°55.214 4.8 283 18.1 101530 46
2010-07-01 05:18:05 51°14.347 2°55.203 5.7 34 18.1 101530 46
2010-07-01 05:18:10 51°14.358 2°55.192 5.5 24 18.1 101530 45
2010-07-01 05:18:15 51°14.368 2°55.181 6.2 34 18.1 101530 45
2010-07-01 05:18:20 51°14.378 2°55.17 6.2 282 18.1 101530 47
2010-07-01 05:18:25 51°14.389 2°55.159 7.1 233 18.1 101530 47
2010-07-01 05:18:30 51°14.4 2°55.149 6.3 26 18 101520 45
2010-07-01 05:18:35 51°14.411 2°55.139 5.7 34 18 101520 45
2010-07-01 05:18:40 51°14.422 2°55.128 6.4 27 18 101530 45
2010-07-01 05:18:45 51°14.433 2°55.118 6 233 18 101530 45
2010-07-01 05:18:50 51°14.444 2°55.108 6.3 281 18 101520 45
2010-07-01 05:18:55 51°14.455 2°55.097 5.8 236 18 101520 45
2010-07-01 05:19:00 51°14.466 2°55.086 5.8 24 17.9 101520 45
2010-07-01 05:19:05 51°14.477 2°55.076 6.9 34 17.9 101520 45
2010-07-01 05:19:10 51°14.488 2°55.065 6.9 284 17.9 101530 44
2010-07-01 05:19:15 51°14.5 2°55.054 6.3 33 17.9 101530 44
2010-07-01 05:19:20 51°14.511 2°55.043 6.1 21 17.9 101530 46
2010-07-01 05:19:24 51°14.52 2°55.034 6 32 17.9 101530 46
2010-07-01 05:19:30 51°14.535 2°55.021 6.4 282 17.9 101530 46
2010-07-01 05:19:35 51°14.547 2°55.01 6.6 37 17.9 101530 46
2010-07-01 05:19:40 51°14.559 2°54.999 6.3 23 17.9 101520 44
2010-07-01 05:19:44 51°14.569 2°54.99 6.4 36 17.9 101520 44
2010-07-01 05:19:50 51°14.584 2°54.977 6 26 17.9 101530 45
2010-07-01 05:19:55 51°14.597 2°54.967 6 232 17.9 101530 45
2010-07-01 05:20:00 51°14.61 2°54.957 5.9 282 17.9 101530 45
2010-07-01 05:20:05 51°14.623 2°54.946 6.7 34 17.9 101530 45
2010-07-01 05:20:10 51°14.636 2°54.935 6 21 17.9 101530 46
2010-07-01 05:20:15 51°14.649 2°54.924 6.9 32 17.9 101530 46
2010-07-01 05:20:20 51°14.662 2°54.914 6.9 22 17.9 101520 45
2010-07-01 05:20:25 51°14.675 2°54.902 6.6 40 17.9 101520 45
2010-07-01 05:20:30 51°14.688 2°54.89 7.2 21 17.9 101530 45
2010-07-01 05:20:35 51°14.701 2°54.878 6.8 39 17.9 101530 45
2010-07-01 05:20:40 51°14.714 2°54.867 7.5 21 17.9 101520 46
2010-07-01 05:20:45 51°14.727 2°54.855 7 35 17.9 101520 46
2010-07-01 05:20:50 51°14.741 2°54.843 6.4 24 17.8 101530 46
2010-07-01 05:20:55 51°14.754 2°54.83 7.4 36 17.8 101530 46
2010-07-01 05:21:00 51°14.767 2°54.817 7.7 25 17.8 101520 45
2010-07-01 05:21:05 51°14.78 2°54.805 7.1 39 17.8 101520 45
2010-07-01 05:21:10 51°14.793 2°54.792 7.3 283 17.8 101520 45
2010-07-01 05:21:15 51°14.807 2°54.78 7 40 17.8 101520 45
2010-07-01 05:21:20 51°14.82 2°54.767 6.8 23 17.8 101520 44
2010-07-01 05:21:25 51°14.833 2°54.753 6.2 33 17.8 101520 44
2010-07-01 05:21:30 51°14.846 2°54.741 7.4 278 17.8 101530 45
2010-07-01 05:21:35 51°14.859 2°54.727 6.7 33 17.8 101530 45
2010-07-01 05:21:40 51°14.872 2°54.714 7.3 22 17.7 101530 44
2010-07-01 05:21:45 51°14.885 2°54.7 7.1 38 17.7 101530 44
2010-07-01 05:21:50 51°14.898 2°54.686 7.4 281 17.7 101520 46
2010-07-01 05:21:55 51°14.911 2°54.672 7.7 32 17.7 101520 46
2010-07-01 05:22:00 51°14.924 2°54.659 6.6 283 17.7 101530 44
2010-07-01 05:22:04 51°14.935 2°54.647 7.4 317 17.7 101530 44
2010-07-01 05:22:10 51°14.951 2°54.63 7.2 317 17.7 101530 45
2010-07-01 05:22:15 51°14.964 2°54.616 7.3 316 17.7 101530 45
2010-07-01 05:22:20 51°14.977 2°54.601 9.3 286 17.6 101520 45
2010-07-01 05:22:25 51°14.99 2°54.586 7.7 35 17.6 101520 45
2010-07-01 05:22:30 51°15.003 2°54.572 7.1 315 17.7 101530 45
2010-07-01 05:22:35 51°15.015 2°54.556 7.8 316 17.7 101530 45
2010-07-01 05:22:40 51°15.028 2°54.541 8.5 317 17.7 101530 45
2010-07-01 05:22:45 51°15.041 2°54.525 8 317 17.7 101530 45
2010-07-01 05:22:50 51°15.054 2°54.509 7.3 279 17.7 101530 45
2010-07-01 05:22:55 51°15.067 2°54.493 9.2 32 17.7 101530 45
2010-07-01 05:23:00 51°15.08 2°54.478 7.4 283 17.7 101530 45
2010-07-01 05:23:05 51°15.094 2°54.463 7.1 41 17.7 101530 45
2010-07-01 05:23:10 51°15.107 2°54.447 7.1 24 17.7 101530 46
2010-07-01 05:23:15 51°15.12 2°54.432 8.7 317 17.7 101530 46
2010-07-01 05:23:20 51°15.134 2°54.417 8 315 17.7 101520 45
2010-07-01 05:23:25 51°15.147 2°54.402 7.3 34 17.7 101520 45
2010-07-01 05:23:30 51°15.16 2°54.386 8.4 23 17.6 101530 45
2010-07-01 05:23:35 51°15.173 2°54.37 8.4 318 17.6 101530 45
2010-07-01 05:23:40 51°15.186 2°54.354 7.6 316 17.6 101530 45
2010-07-01 05:23:45 51°15.199 2°54.337 7.1 316 17.6 101530 45
2010-07-01 05:23:50 51°15.212 2°54.321 8.3 281 17.6 101530 45
2010-07-01 05:23:55 51°15.225 2°54.305 8.3 33 17.6 101530 45
2010-07-01 05:24:00 51°15.238 2°54.29 8.2 316 17.6 101530 44
2010-07-01 05:24:05 51°15.251 2°54.273 8.7 37 17.6 101530 44
2010-07-01 05:24:10 51°15.264 2°54.258 8.4 279 17.6 101530 46
2010-07-01 05:24:15 51°15.277 2°54.241 8.1 32 17.6 101530 46
2010-07-01 05:24:20 51°15.289 2°54.225 7.8 21 17.6 101530 45
2010-07-01 05:24:25 51°15.303 2°54.209 7.9 39 17.6 101530 45
2010-07-01 05:24:30 51°15.316 2°54.194 9 23 17.6 101520 46
2010-07-01 05:24:35 51°15.329 2°54.178 7.4 33 17.6 101520 46
2010-07-01 05:24:40 51°15.342 2°54.161 7.2 316 17.6 101520 45
2010-07-01 05:24:45 51°15.355 2°54.145 7.8 38 17.6 101520 45
2010-07-01 05:24:50 51°15.368 2°54.128 7.3 22 17.5 101520 46
2010-07-01 05:24:55 51°15.381 2°54.11 8.5 37 17.5 101520 46
2010-07-01 05:25:00 51°15.394 2°54.093 7.6 280 17.5 101520 46
2010-07-01 05:25:05 51°15.407 2°54.075 8.8 39 17.5 101520 46
2010-07-01 05:25:10 51°15.42 2°54.057 9.7 28 17.5 101520 46
2010-07-01 05:25:15 51°15.433 2°54.04 7.7 33 17.5 101520 46
2010-07-01 05:25:20 51°15.447 2°54.022 8.1 282 17.5 101520 44
2010-07-01 05:25:25 51°15.46 2°54.005 8 37 17.5 101520 44
2010-07-01 05:25:30 51°15.474 2°53.987 8.9 277 17.5 101530 45
2010-07-01 05:25:35 51°15.487 2°53.969 8.2 316 17.5 101530 45
2010-07-01 05:25:40 51°15.5 2°53.951 7.3 24 17.5 101520 46
2010-07-01 05:25:45 51°15.513 2°53.933 8.8 316 17.5 101520 46
2010-07-01 05:25:50 51°15.527 2°53.915 9.3 283 17.5 101520 45
2010-07-01 05:25:55 51°15.541 2°53.897 8.3 316 17.5 101520 45
2010-07-01 05:26:00 51°15.555 2°53.878 8.2 317 17.5 101520 46
2010-07-01 05:26:05 51°15.569 2°53.859 8.5 317 17.5 101520 46
2010-07-01 05:26:10 51°15.583 2°53.84 7.9 283 17.5 101520 45
2010-07-01 05:26:15 51°15.597 2°53.821 8.3 316 17.5 101520 45
2010-07-01 05:26:20 51°15.612 2°53.802 8.9 316 17.5 101520 46
2010-07-01 05:26:25 51°15.626 2°53.783 8 38 17.5 101520 46
2010-07-01 05:26:30 51°15.64 2°53.764 7.9 277 17.5 101520 45
2010-07-01 05:26:35 51°15.655 2°53.745 7.9 39 17.5 101520 45
2010-07-01 05:26:40 51°15.67 2°53.727 7.9 28 17.5 101520 43
2010-07-01 05:26:44 51°15.682 2°53.712 8 315 17.5 101520 43
2010-07-01 05:26:50 51°15.7 2°53.69 8.6 315 17.4 101520 45
2010-07-01 05:26:55 51°15.715 2°53.671 8.2 34 17.4 101520 45
2010-07-01 05:27:00 51°15.729 2°53.653 7.7 284 17.4 101520 45
2010-07-01 05:27:05 51°15.744 2°53.634 7.3 32 17.4 101520 45
2010-07-01 05:27:10 51°15.759 2°53.616 9.6 22 17.5 101530 45
2010-07-01 05:27:15 51°15.774 2°53.598 9.8 316 17.5 101530 45
2010-07-01 05:27:20 51°15.789 2°53.579 8.2 315 17.5 101520 46
2010-07-01 05:27:25 51°15.804 2°53.561 7.9 315 17.5 101520 46
2010-07-01 05:27:30 51°15.819 2°53.542 8.9 316 17.5 101520 45
2010-07-01 05:27:35 51°15.834 2°53.524 8.8 316 17.5 101520 45
2010-07-01 05:27:40 51°15.848 2°53.505 8.7 315 17.5 101520 46
2010-07-01 05:27:45 51°15.863 2°53.486 8 315 17.5 101520 46
2010-07-01 05:27:50 51°15.878 2°53.468 7.1 284 17.4 101520 45
2010-07-01 05:27:55 51°15.893 2°53.45 8 39 17.4 101520 45
2010-07-01 05:28:00 51°15.908 2°53.432 8.1 280 17.5 101520 45
2010-07-01 05:28:04 51°15.92 2°53.418 7.9 36 17.5 101520 45
2010-07-01 05:28:10 51°15.939 2°53.397 8.4 277 17.4 101520 46
2010-07-01 05:28:15 51°15.954 2°53.379 8.1 315 17.4 101520 46
2010-07-01 05:28:20 51°15.97 2°53.363 8.4 277 17.4 101520 45
2010-07-01 05:28:24 51°15.982 2°53.349 7.6 35 17.4 101520 45
2010-07-01 05:28:30 51°16.002 2°53.331 7.9 280 17.4 101530 45
2010-07-01 05:28:35 51°16.018 2°53.315 8.7 38 17.4 101530 45
2010-07-01 05:28:40 51°16.036 2°53.302 7.4 317 17.4 101520 46
2010-07-01 05:28:44 51°16.049 2°53.29 7.1 37 17.4 101520 46
2010-07-01 05:28:50 51°16.07 2°53.274 7.7 22 17.4 101520 46
2010-07-01 05:28:55 51°16.087 2°53.261 7.2 316 17.4 101520 46
2010-07-01 05:29:00 51°16.105 2°53.249 8.4 280 17.4 101520 47
2010-07-01 05:29:05 51°16.123 2°53.236 7.7 315 17.4 101520 47
2010-07-01 05:29:10 51°16.141 2°53.225 7.3 23 17.4 101520 47
2010-07-01 05:29:15 51°16.159 2°53.213 7 40 17.4 101520 47
2010-07-01 05:29:20 51°16.177 2°53.202 6.6 25 17.4 101530 45
2010-07-01 05:29:25 51°16.195 2°53.19 7.2 38 17.4 101530 45
2010-07-01 05:29:30 51°16.213 2°53.179 7.4 316 17.4 101520 47
2010-07-01 05:29:35 51°16.231 2°53.167 7.1 38 17.4 101520 47
2010-07-01 05:29:40 51°16.249 2°53.156 7.6 23 17.4 101530 47
2010-07-01 05:29:45 51°16.266 2°53.144 7.8 36 17.4 101530 47
2010-07-01 05:29:50 51°16.284 2°53.132 7.4 280 17.4 101530 46
2010-07-01 05:29:55 51°16.301 2°53.119 7 32 17.4 101530 46
2010-07-01 05:30:00 51°16.319 2°53.107 8.1 282 17.4 101520 46
2010-07-01 05:30:05 51°16.337 2°53.096 7.7 34 17.4 101520 46
2010-07-01 05:30:10 51°16.354 2°53.084 7.2 23 17.3 101530 45
2010-07-01 05:30:15 51°16.372 2°53.072 6.7 32 17.3 101530 45
2010-07-01 05:30:20 51°16.389 2°53.06 6.8 26 17.3 101520 45
2010-07-01 05:30:25 51°16.407 2°53.047 7.3 39 17.3 101520 45
2010-07-01 05:30:30 51°16.424 2°53.035 7.3 284 17.3 101530 46
2010-07-01 05:30:35 51°16.442 2°53.023 7 38 17.3 101530 46
2010-07-01 05:30:40 51°16.459 2°53.011 7.4 25 17.2 101520 45
2010-07-01 05:30:44 51°16.473 2°53.002 7.6 35 17.2 101520 45
2010-07-01 05:30:50 51°16.495 2°52.988 7.2 277 17.3 101530 46
2010-07-01 05:30:55 51°16.513 2°52.977 7.1 33 17.3 101530 46
2010-07-01 05:31:00 51°16.53 2°52.965 7.5 23 17.3 101520 45
2010-07-01 05:31:05 51°16.548 2°52.954 7.7 36 17.3 101520 45
2010-07-01 05:31:10 51°16.566 2°52.942 7.4 21 17.2 101530 46
2010-07-01 05:31:15 51°16.584 2°52.93 7.2 38 17.2 101530 46
2010-07-01 05:31:20 51°16.602 2°52.918 7.9 27 17.2 101530 45
2010-07-01 05:31:25 51°16.62 2°52.907 7.5 34 17.2 101530 45
2010-07-01 05:31:30 51°16.638 2°52.895 7 20 17.2 101530 46
2010-07-01 05:31:35 51°16.656 2°52.883 7.6 33 17.2 101530 46
2010-07-01 05:31:40 51°16.674 2°52.871 7.1 26 17.2 101530 45
2010-07-01 05:31:45 51°16.692 2°52.86 7.2 38 17.2 101530 45
2010-07-01 05:31:50 51°16.71 2°52.849 7.4 27 17.2 101530 45
2010-07-01 05:31:55 51°16.728 2°52.839 6.7 34 17.2 101530 45
2010-07-01 05:32:00 51°16.746 2°52.829 7.1 284 17.2 101530 44
2010-07-01 05:32:04 51°16.761 2°52.821 6.7 39 17.2 101530 44
2010-07-01 05:32:10 51°16.783 2°52.81 6.8 28 17.2 101530 44
2010-07-01 05:32:15 51°16.802 2°52.801 6.5 39 17.2 101530 44
2010-07-01 05:32:20 51°16.821 2°52.792 6.9 281 17.2 101530 44
2010-07-01 05:32:25 51°16.839 2°52.784 6.4 39 17.2 101530 44
2010-07-01 05:32:30 51°16.858 2°52.776 6.3 23 17.2 101530 45
2010-07-01 05:32:35 51°16.877 2°52.767 6.8 41 17.2 101530 45
2010-07-01 05:32:40 51°16.896 2°52.76 6.3 24 17.2 101530 44
2010-07-01 05:32:44 51°16.911 2°52.753 6.3 35 17.2 101530 44
2010-07-01 05:32:50 51°16.934 2°52.743 6.6 284 17.2 101530 46
2010-07-01 05:32:55 51°16.953 2°52.735 6 39 17.2 101530 46
2010-07-01 05:33:00 51°16.972 2°52.727 5.8 27 17.2 101530 46
2010-07-01 05:33:05 51°16.99 2°52.717 6.6 33 17.2 101530 46
2010-07-01 05:33:10 51°17.009 2°52.708 6.2 283 17.3 101530 46
2010-07-01 05:33:15 51°17.028 2°52.7 6.5 35 17.3 101530 46
2010-07-01 05:33:20 51°17.047 2°52.691 6.5 27 17.2 101530 46
2010-07-01 05:33:25 51°17.066 2°52.683 7.4 35 17.2 101530 46
2010-07-01 05:33:30 51°17.085 2°52.676 5.7 28 17.2 101530 45
2010-07-01 05:33:35 51°17.104 2°52.668 6.7 33 17.2 101530 45
2010-07-01 05:33:40 51°17.124 2°52.662 6.1 28 17.3 101530 46
2010-07-01 05:33:45 51°17.142 2°52.654 5.5 33 17.3 101530 46
2010-07-01 05:33:50 51°17.162 2°52.648 6 28 17.3 101530 47
2010-07-01 05:33:55 51°17.181 2°52.641 5.8 34 17.3 101530 47
2010-07-01 05:34:00 51°17.2 2°52.635 5.9 284 17.3 101520 46
2010-07-01 05:34:05 51°17.219 2°52.629 5.7 35 17.3 101520 46
2010-07-01 05:34:10 51°17.239 2°52.624 5.5 24 17.3 101530 46
2010-07-01 05:34:15 51°17.258 2°52.618 6.4 33 17.3 101530 46
2010-07-01 05:34:20 51°17.277 2°52.614 5.9 282 17.3 101530 47
2010-07-01 05:34:25 51°17.296 2°52.608 5.4 35 17.3 101530 47
2010-07-01 05:34:30 51°17.316 2°52.604 5.3 23 17.3 101530 48
2010-07-01 05:34:35 51°17.335 2°52.598 5.8 33 17.3 101530 48
2010-07-01 05:34:40 51°17.354 2°52.594 5.2 20 17.3 101530 45
2010-07-01 05:34:45 51°17.373 2°52.589 5.4 36 17.3 101530 45
2010-07-01 05:34:50 51°17.393 2°52.586 5.7 281 17.3 101530 46
2010-07-01 05:34:55 51°17.412 2°52.581 5.9 35 17.3 101530 46
2010-07-01 05:35:00 51°17.431 2°52.577 5.9 21 17.3 101530 46
2010-07-01 05:35:05 51°17.45 2°52.572 5.4 31 17.3 101530 46
2010-07-01 05:35:10 51°17.469 2°52.568 6 277 17.3 101530 46
2010-07-01 05:35:15 51°17.488 2°52.563 5.8 34 17.3 101530 46
2010-07-01 05:35:20 51°17.508 2°52.559 5.8 27 17.3 101530 48
2010-07-01 05:35:25 51°17.526 2°52.554 6.5 34 17.3 101530 48
2010-07-01 05:35:30 51°17.546 2°52.55 5.9 27 17.3 101530 47
2010-07-01 05:35:35 51°17.565 2°52.546 5.5 32 17.3 101530 47
2010-07-01 05:35:40 51°17.584 2°52.542 5.8 28 17.3 101530 48
2010-07-01 05:35:44 51°17.599 2°52.538 5.7 37 17.3 101530 48
2010-07-01 05:35:50 51°17.622 2°52.534 5.1 28 17.3 101530 48
2010-07-01 05:35:55 51°17.641 2°52.529 5.8 33 17.3 101530 48
2010-07-01 05:36:00 51°17.66 2°52.525 5.7 283 17.3 101530 48
2010-07-01 05:36:05 51°17.679 2°52.52 5.4 230 17.3 101530 48
2010-07-01 05:36:10 51°17.698 2°52.516 5.6 30 17.3 101530 48
2010-07-01 05:36:15 51°17.717 2°52.511 5.5 41 17.3 101530 48
2010-07-01 05:36:20 51°17.736 2°52.506 5.3 278 17.2 101530 47
2010-07-01 05:36:25 51°17.755 2°52.503 5.6 35 17.2 101530 47
2010-07-01 05:36:30 51°17.774 2°52.5 5.3 24 17.2 101530 48
2010-07-01 05:36:35 51°17.794 2°52.501 5 35 17.2 101530 48
2010-07-01 05:36:40 51°17.813 2°52.501 4.9 20 17.2 101530 47
2010-07-01 05:36:45 51°17.832 2°52.504 4.6 33 17.2 101530 47
2010-07-01 05:36:50 51°17.851 2°52.507 4.1 282 17.2 101530 47
2010-07-01 05:36:55 51°17.871 2°52.512 4.3 33 17.2 101530 47
2010-07-01 05:37:00 51°17.89 2°52.516 4.8 21 17.2 101530 49
2010-07-01 05:37:05 51°17.909 2°52.521 4.2 34 17.2 101530 49
2010-07-01 05:37:10 51°17.928 2°52.527 4 282 17.2 101530 47
2010-07-01 05:37:15 51°17.947 2°52.533 4.1 41 17.2 101530 47
2010-07-01 05:37:20 51°17.966 2°52.538 4.4 28 17.2 101540 46
2010-07-01 05:37:25 51°17.985 2°52.546 4.8 35 17.2 101540 46
2010-07-01 05:37:30 51°18.004 2°52.551 3.8 284 17.2 101540 47
2010-07-01 05:37:35 51°18.023 2°52.559 3.7 35 17.2 101540 47
2010-07-01 05:37:40 51°18.042 2°52.565 3.5 29 17.2 101540 47
2010-07-01 05:37:44 51°18.057 2°52.57 4.3 35 17.2 101540 47
2010-07-01 05:37:50 51°18.08 2°52.578 4 25 17.2 101540 47
2010-07-01 05:37:55 51°18.099 2°52.585 4 32 17.2 101540 47
2010-07-01 05:38:00 51°18.118 2°52.591 3.3 279 17.2 101540 47
2010-07-01 05:38:05 51°18.137 2°52.598 3.6 33 17.2 101540 47
2010-07-01 05:38:10 51°18.156 2°52.604 3.9 23 17.1 101540 47
2010-07-01 05:38:15 51°18.175 2°52.611 4.2 231 17.1 101540 47
2010-07-01 05:38:20 51°18.194 2°52.617 4.3 25 17.1 101530 47
2010-07-01 05:38:25 51°18.213 2°52.624 3.9 33 17.1 101530 47
2010-07-01 05:38:30 51°18.232 2°52.63 4 29 17.1 101540 47
2010-07-01 05:38:35 51°18.251 2°52.636 4.3 32 17.1 101540 47
2010-07-01 05:38:40 51°18.271 2°52.643 3.9 23 17.1 101540 47
2010-07-01 05:38:45 51°18.29 2°52.648 4.5 33 17.1 101540 47
2010-07-01 05:38:50 51°18.309 2°52.655 4.4 283 17.1 101540 49
2010-07-01 05:38:55 51°18.328 2°52.661 4.2 35 17.1 101540 49
2010-07-01 05:39:00 51°18.347 2°52.667 4.1 283 17.1 101540 47
2010-07-01 05:39:05 51°18.366 2°52.674 4.1 233 17.1 101540 47
2010-07-01 05:39:10 51°18.385 2°52.679 4.1 28 17.1 101540 49
2010-07-01 05:39:15 51°18.404 2°52.686 4.8 34 17.1 101540 49
2010-07-01 05:39:20 51°18.423 2°52.691 4.8 23 17.1 101540 47
2010-07-01 05:39:24 51°18.438 2°52.696 4.5 32 17.1 101540 47
2010-07-01 05:39:30 51°18.461 2°52.702 4 283 17.1 101540 49
2010-07-01 05:39:35 51°18.48 2°52.709 4.6 33 17.1 101540 49
2010-07-01 05:39:40 51°18.5 2°52.714 4.5 22 17.1 101540 47
2010-07-01 05:39:44 51°18.515 2°52.719 4.1 31 17.1 101540 47
2010-07-01 05:39:50 51°18.538 2°52.726 4.3 22 17.1 101540 47
2010-07-01 05:39:55 51°18.557 2°52.732 4 35 17.1 101540 47
2010-07-01 05:40:00 51°18.576 2°52.738 4 24 17.1 101540 46
2010-07-01 05:40:05 51°18.595 2°52.743 4.2 33 17.1 101540 46
2010-07-01 05:40:10 51°18.614 2°52.75 4.9 29 17.1 101530 49
2010-07-01 05:40:15 51°18.633 2°52.755 5.1 231 17.1 101530 49
2010-07-01 05:40:20 51°18.653 2°52.761 4.4 278 17.1 101530 47
2010-07-01 05:40:25 51°18.672 2°52.767 4.6 33 17.1 101530 47
2010-07-01 05:40:30 51°18.691 2°52.772 4.4 28 17.1 101530 47
2010-07-01 05:40:35 51°18.71 2°52.778 4.4 234 17.1 101530 47
2010-07-01 05:40:40 51°18.729 2°52.783 4.2 30 17.1 101540 49
2010-07-01 05:40:45 51°18.748 2°52.789 3.9 232 17.1 101540 49
2010-07-01 05:40:50 51°18.768 2°52.794 4.1 284 17.1 101530 47
2010-07-01 05:40:55 51°18.787 2°52.8 4.4 35 17.1 101530 47
2010-07-01 05:41:00 51°18.806 2°52.806 4.5 278 17.1 101530 47
2010-07-01 05:41:05 51°18.825 2°52.811 4 33 17.1 101530 47
2010-07-01 05:41:10 51°18.844 2°52.817 4.6 283 17.1 101540 47
2010-07-01 05:41:15 51°18.863 2°52.823 4.3 33 17.1 101540 47
2010-07-01 05:41:20 51°18.882 2°52.828 4.3 281 17 101540 47
2010-07-01 05:41:25 51°18.902 2°52.834 4.1 233 17 101540 47
2010-07-01 05:41:30 51°18.921 2°52.839 4.3 21 17 101540 48
2010-07-01 05:41:35 51°18.94 2°52.845 4 37 17 101540 48
2010-07-01 05:41:40 51°18.959 2°52.851 4 27 17 101530 47
2010-07-01 05:41:44 51°18.974 2°52.855 4.2 33 17 101530 47
2010-07-01 05:41:50 51°18.997 2°52.862 4.1 27 17 101530 47
2010-07-01 05:41:55 51°19.016 2°52.868 3.9 34 17 101530 47
2010-07-01 05:42:00 51°19.035 2°52.873 4.4 278 17 101540 47
2010-07-01 05:42:05 51°19.054 2°52.878 4.2 34 17 101540 47
2010-07-01 05:42:10 51°19.074 2°52.884 4.3 23 17 101530 48
2010-07-01 05:42:15 51°19.093 2°52.889 4 37 17 101530 48
2010-07-01 05:42:20 51°19.112 2°52.895 4 283 17 101530 47
2010-07-01 05:42:25 51°19.131 2°52.9 3.8 32 17 101530 47
2010-07-01 05:42:30 51°19.151 2°52.905 4.4 22 17 101530 47
2010-07-01 05:42:35 51°19.17 2°52.911 4 234 17 101530 47
2010-07-01 05:42:40 51°19.189 2°52.916 4 25 17.1 101530 46
2010-07-01 05:42:45 51°19.208 2°52.921 3.7 35 17.1 101530 46
2010-07-01 05:42:50 51°19.227 2°52.927 4.2 283 17.1 101530 47
2010-07-01 05:42:55 51°19.246 2°52.932 4.2 234 17.1 101530 47
2010-07-01 05:43:00 51°19.265 2°52.938 4.1 283 17 101530 47
2010-07-01 05:43:05 51°19.284 2°52.943 3.9 235 17 101530 47
2010-07-01 05:43:10 51°19.304 2°52.949 4.1 279 17.1 101530 47
2010-07-01 05:43:15 51°19.323 2°52.955 3.5 35 17.1 101530 47
2010-07-01 05:43:20 51°19.342 2°52.961 4.3 284 17 101530 49
2010-07-01 05:43:25 51°19.361 2°52.966 4.1 232 17 101530 49
2010-07-01 05:43:30 51°19.38 2°52.972 3.9 20 17 101530 47
2010-07-01 05:43:35 51°19.399 2°52.977 4.1 33 17 101530 47
2010-07-01 05:43:40 51°19.419 2°52.982 4 23 17 101530 48
2010-07-01 05:43:45 51°19.438 2°52.988 3.7 234 17 101530 48
2010-07-01 05:43:50 51°19.457 2°52.992 3.9 30 17 101530 48
2010-07-01 05:43:55 51°19.476 2°52.998 3.2 35 17 101530 48
2010-07-01 05:44:00 51°19.495 2°53.003 3.6 283 17 101530 47
2010-07-01 05:44:04 51°19.511 2°53.008 3.5 39 17 101530 47
2010-07-01 05:44:10 51°19.534 2°53.014 3.5 278 17 101530 48
2010-07-01 05:44:15 51°19.553 2°53.02 4.1 34 17 101530 48
2010-07-01 05:44:20 51°19.572 2°53.025 4 284 17 101530 48
2010-07-01 05:44:25 51°19.591 2°53.03 3.8 235 17 101530 48
2010-07-01 05:44:30 51°19.611 2°53.036 4.1 22 17 101530 47
2010-07-01 05:44:35 51°19.63 2°53.041 3.8 32 17 101530 47
2010-07-01 05:44:40 51°19.649 2°53.047 3.7 28 17 101530 47
2010-07-01 05:44:45 51°19.668 2°53.052 3 34 17 101530 47
2010-07-01 05:44:50 51°19.687 2°53.057 3.2 27 17 101530 47
2010-07-01 05:44:55 51°19.707 2°53.062 3.5 35 17 101530 47
2010-07-01 05:45:00 51°19.726 2°53.067 3.5 285 17 101530 46
2010-07-01 05:45:05 51°19.745 2°53.073 3.6 232 17 101530 46
2010-07-01 05:45:10 51°19.764 2°53.078 3.8 21 17 101530 46
2010-07-01 05:45:15 51°19.783 2°53.083 3.5 31 17 101530 46
2010-07-01 05:45:20 51°19.803 2°53.089 3.4 21 17 101530 46
2010-07-01 05:45:25 51°19.822 2°53.094 3.3 31 17 101530 46
2010-07-01 05:45:30 51°19.841 2°53.099 3.6 20 17 101530 48
2010-07-01 05:45:35 51°19.86 2°53.105 4.2 35 17 101530 48
2010-07-01 05:45:40 51°19.879 2°53.11 4.1 26 17 101520 47
2010-07-01 05:45:45 51°19.898 2°53.115 3.8 33 17 101520 47
2010-07-01 05:45:50 51°19.917 2°53.121 3.6 283 17 101530 48
2010-07-01 05:45:55 51°19.937 2°53.125 3.9 35 17 101530 48
2010-07-01 05:46:00 51°19.956 2°53.131 3.6 29 17 101530 47
2010-07-01 05:46:05 51°19.975 2°53.136 3.6 233 17 101530 47
2010-07-01 05:46:10 51°19.994 2°53.142 3.3 278 17 101520 48
2010-07-01 05:46:15 51°20.014 2°53.148 3.8 33 17 101520 48
2010-07-01 05:46:20 51°20.033 2°53.153 4 285 17 101530 48
2010-07-01 05:46:24 51°20.048 2°53.157 4 38 17 101530 48
2010-07-01 05:46:30 51°20.071 2°53.164 4.4 281 17 101530 46
2010-07-01 05:46:35 51°20.09 2°53.17 4.1 32 17 101530 46
2010-07-01 05:46:40 51°20.109 2°53.175 3.7 22 17 101520 47
2010-07-01 05:46:45 51°20.128 2°53.18 3.9 236 17 101520 47
2010-07-01 05:46:50 51°20.147 2°53.185 3.6 21 17 101530 46
2010-07-01 05:46:55 51°20.166 2°53.19 3.5 36 17 101530 46
2010-07-01 05:47:00 51°20.186 2°53.196 3.8 282 17 101530 48
2010-07-01 05:47:04 51°20.201 2°53.2 3.5 32 17 101530 48
2010-07-01 05:47:10 51°20.224 2°53.207 3.8 27 17 101530 48
2010-07-01 05:47:15 51°20.243 2°53.212 3.2 35 17 101530 48
2010-07-01 05:47:20 51°20.262 2°53.217 3.7 285 17 101530 46
2010-07-01 05:47:25 51°20.281 2°53.222 4.1 32 17 101530 46
2010-07-01 05:47:30 51°20.3 2°53.227 3.6 22 17 101520 46
2010-07-01 05:47:35 51°20.319 2°53.231 3.7 238 17 101520 46
2010-07-01 05:47:40 51°20.338 2°53.236 3.7 30 17 101520 47
2010-07-01 05:47:45 51°20.358 2°53.241 3.9 236 17 101520 47
2010-07-01 05:47:50 51°20.376 2°53.246 3.3 280 17 101520 48
2010-07-01 05:47:55 51°20.396 2°53.251 3.4 34 17 101520 48
2010-07-01 05:48:00 51°20.415 2°53.256 3.4 26 17 101530 45
2010-07-01 05:48:05 51°20.434 2°53.262 3.4 237 17 101530 45
2010-07-01 05:48:10 51°20.453 2°53.267 4 279 17 101530 46
2010-07-01 05:48:15 51°20.472 2°53.272 4.4 33 17 101530 46
2010-07-01 05:48:20 51°20.491 2°53.277 4.4 20 17 101530 47
2010-07-01 05:48:24 51°20.507 2°53.282 3.9 236 17 101530 47
2010-07-01 05:48:30 51°20.53 2°53.288 3.7 278 17 101520 48
2010-07-01 05:48:35 51°20.55 2°53.293 3.7 33 17 101520 48
2010-07-01 05:48:40 51°20.569 2°53.298 3.7 23 17 101520 47
2010-07-01 05:48:44 51°20.584 2°53.302 4.3 36 17 101520 47
2010-07-01 05:48:50 51°20.607 2°53.308 4.3 21 17 101530 47
2010-07-01 05:48:55 51°20.626 2°53.313 4 236 17 101530 47
2010-07-01 05:49:00 51°20.646 2°53.318 3.8 283 17 101530 47
2010-07-01 05:49:05 51°20.665 2°53.323 4.2 35 17 101530 47
2010-07-01 05:49:10 51°20.684 2°53.329 3.5 30 17 101520 46
2010-07-01 05:49:15 51°20.703 2°53.334 3.3 33 17 101520 46
2010-07-01 05:49:20 51°20.722 2°53.339 3.6 22 17 101530 47
2010-07-01 05:49:25 51°20.741 2°53.345 3.9 32 17 101530 47
2010-07-01 05:49:30 51°20.76 2°53.35 4 22 17 101530 48
2010-07-01 05:49:35 51°20.779 2°53.355 4 32 17 101530 48
2010-07-01 05:49:40 51°20.798 2°53.36 4.2 20 17 101530 48
2010-07-01 05:49:45 51°20.817 2°53.365 4.2 237 17 101530 48
2010-07-01 05:49:50 51°20.837 2°53.371 4.2 26 17 101530 46
2010-07-01 05:49:55 51°20.856 2°53.376 3.6 234 17 101530 46
2010-07-01 05:50:00 51°20.875 2°53.381 4.1 28 17 101530 46
2010-07-01 05:50:05 51°20.894 2°53.386 4.2 236 17 101530 46
2010-07-01 05:50:10 51°20.913 2°53.391 4.3 29 17 101530 46
2010-07-01 05:50:15 51°20.932 2°53.396 3.9 239 17 101530 46
2010-07-01 05:50:20 51°20.951 2°53.401 3.7 23 17 101530 47
2010-07-01 05:50:25 51°20.97 2°53.406 4 236 17 101530 47
2010-07-01 05:50:30 51°20.989 2°53.411 3.9 27 17 101530 47
2010-07-01 05:50:35 51°21.008 2°53.415 2.6 239 17 101530 47
2010-07-01 05:50:40 51°21.028 2°53.421 3.6 26 17 101520 45
2010-07-01 05:50:44 51°21.043 2°53.424 4 31 17 101520 45
2010-07-01 05:50:50 51°21.066 2°53.431 4 22 17 101530 46
2010-07-01 05:50:55 51°21.085 2°53.436 3.8 34 17 101530 46
2010-07-01 05:51:00 51°21.104 2°53.441 3.1 29 16.9 101520 48
2010-07-01 05:51:04 51°21.12 2°53.445 3.6 35 16.9 101520 48
2010-07-01 05:51:10 51°21.143 2°53.452 3.7 21 17 101530 48
2010-07-01 05:51:15 51°21.162 2°53.457 4.1 32 17 101530 48
2010-07-01 05:51:20 51°21.181 2°53.462 3.8 20 17 101530 46
2010-07-01 05:51:24 51°21.196 2°53.466 4.2 238 17 101530 46
2010-07-01 05:51:30 51°21.219 2°53.472 3.9 28 17 101520 46
2010-07-01 05:51:35 51°21.239 2°53.478 3.3 236 17 101520 46
2010-07-01 05:51:40 51°21.258 2°53.483 3.4 29 17 101520 46
2010-07-01 05:51:45 51°21.277 2°53.488 3.7 233 17 101520 46
2010-07-01 05:51:50 51°21.296 2°53.493 4 26 17 101520 48
2010-07-01 05:51:55 51°21.316 2°53.498 3.7 32 17 101520 48
2010-07-01 05:52:00 51°21.335 2°53.503 4.2 20 17 101520 47
2010-07-01 05:52:04 51°21.351 2°53.507 3.7 233 17 101520 47
2010-07-01 05:52:10 51°21.374 2°53.514 3.5 22 17 101520 46
2010-07-01 05:52:15 51°21.393 2°53.519 3.6 33 17 101520 46
2010-07-01 05:52:20 51°21.413 2°53.524 3.7 22 17 101520 47
2010-07-01 05:52:25 51°21.432 2°53.529 3.8 35 17 101520 47
2010-07-01 05:52:30 51°21.451 2°53.534 3.9 25 17 101520 47
2010-07-01 05:52:35 51°21.47 2°53.539 3.7 33 17 101520 47
2010-07-01 05:52:40 51°21.489 2°53.544 3.9 29 17 101520 46
2010-07-01 05:52:44 51°21.505 2°53.548 4 236 17 101520 46
2010-07-01 05:52:50 51°21.528 2°53.554 3.3 21 17 101520 48
2010-07-01 05:52:55 51°21.547 2°53.559 3.7 33 17 101520 48
2010-07-01 05:53:00 51°21.566 2°53.564 4.1 20 17 101520 47
2010-07-01 05:53:04 51°21.582 2°53.569 4 237 17 101520 47
2010-07-01 05:53:10 51°21.605 2°53.575 3.8 23 17.1 101520 48
2010-07-01 05:53:15 51°21.624 2°53.58 3.5 240 17.1 101520 48
2010-07-01 05:53:20 51°21.643 2°53.585 3.9 22 17.1 101520 47
2010-07-01 05:53:25 51°21.662 2°53.591 4.4 34 17.1 101520 47
2010-07-01 05:53:30 51°21.681 2°53.595 4.1 27 17.1 101520 47
2010-07-01 05:53:35 51°21.7 2°53.597 4.1 237 17.1 101520 47
2010-07-01 05:53:40 51°21.72 2°53.6 4.3 26 17 101520 46
2010-07-01 05:53:45 51°21.739 2°53.601 4.3 238 17 101520 46
2010-07-01 05:53:50 51°21.758 2°53.602 4.8 23 17 101520 47
2010-07-01 05:53:55 51°21.777 2°53.602 4.8 236 17 101520 47
2010-07-01 05:54:00 51°21.797 2°53.604 4.1 21 17 101520 48
2010-07-01 05:54:05 51°21.816 2°53.603 4.3 236 17 101520 48
2010-07-01 05:54:10 51°21.835 2°53.604 4.4 23 17 101520 48
2010-07-01 05:54:15 51°21.855 2°53.603 4.7 238 17 101520 48
2010-07-01 05:54:20 51°21.874 2°53.604 4.5 28 17 101520 47
2010-07-01 05:54:24 51°21.89 2°53.603 4.8 33 17 101520 47
2010-07-01 05:54:30 51°21.913 2°53.603 4.2 28 17 101520 47
2010-07-01 05:54:35 51°21.932 2°53.602 4.5 239 17 101520 47
2010-07-01 05:54:40 51°21.951 2°53.603 4.4 26 17 101520 47
2010-07-01 05:54:45 51°21.971 2°53.602 4.5 239 17 101520 47
2010-07-01 05:54:50 51°21.99 2°53.602 4.7 26 17 101520 47
2010-07-01 05:54:55 51°22.01 2°53.602 4.4 35 17 101520 47
2010-07-01 05:55:00 51°22.029 2°53.602 4.4 24 17 101520 48
2010-07-01 05:55:05 51°22.049 2°53.602 4.6 237 17 101520 48
2010-07-01 05:55:10 51°22.068 2°53.602 4.3 23 17 101520 48
2010-07-01 05:55:15 51°22.088 2°53.601 4.4 234 17 101520 48
2010-07-01 05:55:20 51°22.107 2°53.601 4.3 24 17 101510 48
2010-07-01 05:55:25 51°22.126 2°53.601 4.1 35 17 101510 48
2010-07-01 05:55:30 51°22.146 2°53.601 4.3 25 17 101510 47
2010-07-01 05:55:35 51°22.165 2°53.601 4.7 239 17 101510 47
2010-07-01 05:55:40 51°22.185 2°53.601 4.6 26 17 101510 48
2010-07-01 05:55:45 51°22.204 2°53.601 4.2 35 17 101510 48
2010-07-01 05:55:50 51°22.224 2°53.601 4.3 24 17 101520 48
2010-07-01 05:55:55 51°22.243 2°53.601 5.2 237 17 101520 48
2010-07-01 05:56:00 51°22.262 2°53.601 4.9 26 17 101520 47
2010-07-01 05:56:04 51°22.278 2°53.6 4.5 238 17 101520 47
2010-07-01 05:56:10 51°22.301 2°53.6 4.4 24 17 101520 47
2010-07-01 05:56:15 51°22.321 2°53.599 4.8 35 17 101520 47
2010-07-01 05:56:20 51°22.34 2°53.598 4.8 22 17 101520 47
2010-07-01 05:56:25 51°22.359 2°53.598 4.6 37 17 101520 47
2010-07-01 05:56:30 51°22.379 2°53.598 5.1 23 17 101520 47
2010-07-01 05:56:35 51°22.398 2°53.598 4.8 33 17 101520 47
2010-07-01 05:56:40 51°22.418 2°53.597 4.6 22 17 101510 49
2010-07-01 05:56:45 51°22.437 2°53.597 4.6 32 17 101510 49
2010-07-01 05:56:50 51°22.456 2°53.597 4.6 22 17 101510 49
2010-07-01 05:56:55 51°22.476 2°53.597 4.3 238 17 101510 49
2010-07-01 05:57:00 51°22.495 2°53.597 4.6 25 17 101520 47
2010-07-01 05:57:05 51°22.515 2°53.597 4.6 235 17 101520 47
2010-07-01 05:57:10 51°22.534 2°53.597 4.4 27 17 101510 48
2010-07-01 05:57:15 51°22.554 2°53.597 4.3 235 17 101510 48
2010-07-01 05:57:20 51°22.574 2°53.597 4.6 20 17 101510 48
2010-07-01 05:57:24 51°22.589 2°53.597 4.8 33 17 101510 48
2010-07-01 05:57:30 51°22.613 2°53.598 4.4 24 17 101510 47
2010-07-01 05:57:35 51°22.633 2°53.598 4.6 236 17 101510 47
2010-07-01 05:57:40 51°22.652 2°53.598 4.4 28 17 101510 48
2010-07-01 05:57:44 51°22.668 2°53.598 4 238 17 101510 48
2010-07-01 05:57:50 51°22.692 2°53.599 4.2 26 17 101510 47
2010-07-01 05:57:55 51°22.711 2°53.599 4.6 34 17 101510 47
2010-07-01 05:58:00 51°22.731 2°53.6 4.5 26 17 101510 47
2010-07-01 05:58:04 51°22.747 2°53.6 4.3 32 17 101510 47
2010-07-01 05:58:10 51°22.771 2°53.601 4 28 16.9 101510 47
2010-07-01 05:58:15 51°22.791 2°53.601 4.5 34 16.9 101510 47
2010-07-01 05:58:20 51°22.811 2°53.602 4.2 29 16.9 101520 48
2010-07-01 05:58:25 51°22.831 2°53.603 4.7 236 16.9 101520 48
2010-07-01 05:58:30 51°22.851 2°53.603 4.4 27 16.9 101510 48
2010-07-01 05:58:35 51°22.871 2°53.604 4.4 235 16.9 101510 48
2010-07-01 05:58:40 51°22.891 2°53.604 4.2 24 16.9 101510 47
2010-07-01 05:58:45 51°22.911 2°53.604 4.3 237 16.9 101510 47
2010-07-01 05:58:50 51°22.931 2°53.605 4.7 21 16.9 101510 49
2010-07-01 05:58:55 51°22.951 2°53.605 4.2 233 16.9 101510 49
2010-07-01 05:59:00 51°22.971 2°53.606 4.4 24 16.9 101510 47
2010-07-01 05:59:05 51°22.991 2°53.606 4.7 32 16.9 101510 47
2010-07-01 05:59:10 51°23.01 2°53.606 4.4 23 16.9 101510 49
2010-07-01 05:59:15 51°23.03 2°53.607 4.2 32 16.9 101510 49
2010-07-01 05:59:20 51°23.05 2°53.607 4.6 22 16.9 101510 47
2010-07-01 05:59:25 51°23.07 2°53.607 4.1 236 16.9 101510 47
2010-07-01 05:59:30 51°23.09 2°53.607 4.3 25 16.9 101510 48
2010-07-01 05:59:35 51°23.11 2°53.607 4.6 32 16.9 101510 48
2010-07-01 05:59:40 51°23.13 2°53.608 4.5 22 16.9 101510 47
2010-07-01 05:59:44 51°23.146 2°53.607 4.1 35 16.9 101510 47
2010-07-01 05:59:50 51°23.169 2°53.608 4.4 23 16.9 101510 48
2010-07-01 05:59:55 51°23.189 2°53.608 4.3 235 16.9 101510 48
2010-07-01 06:00:00 51°23.209 2°53.608 4.8 23 16.9 101510 48
2010-07-01 06:00:04 51°23.225 2°53.607 4.2 235 16.9 101510 48
2010-07-01 06:00:10 51°23.248 2°53.607 5.1 26 16.9 101510 48
2010-07-01 06:00:15 51°23.268 2°53.607 4.6 237 16.9 101510 48
2010-07-01 06:00:20 51°23.288 2°53.607 4.9 23 16.9 101520 49
2010-07-01 06:00:24 51°23.303 2°53.607 4.4 238 16.9 101520 49
2010-07-01 06:00:30 51°23.327 2°53.607 4.5 26 16.9 101510 48
2010-07-01 06:00:35 51°23.346 2°53.607 4.3 239 16.9 101510 48
2010-07-01 06:00:40 51°23.366 2°53.607 4.7 22 16.9 101510 49
2010-07-01 06:00:45 51°23.386 2°53.607 4.6 35 16.9 101510 49
2010-07-01 06:00:50 51°23.405 2°53.607 4.5 26 16.9 101520 47
2010-07-01 06:00:55 51°23.425 2°53.606 4.4 233 16.9 101520 47
2010-07-01 06:01:00 51°23.444 2°53.606 5 30 16.9 101510 49
2010-07-01 06:01:05 51°23.464 2°53.606 4.4 237 16.9 101510 49
2010-07-01 06:01:10 51°23.484 2°53.605 4.4 27 16.9 101510 49
2010-07-01 06:01:15 51°23.503 2°53.605 4.7 237 16.9 101510 49
2010-07-01 06:01:20 51°23.523 2°53.604 5.4 29 16.9 101510 48
2010-07-01 06:01:24 51°23.538 2°53.604 5.1 240 16.9 101510 48
2010-07-01 06:01:30 51°23.561 2°53.604 4.8 23 16.9 101510 47
2010-07-01 06:01:35 51°23.581 2°53.603 4.7 237 16.9 101510 47
2010-07-01 06:01:40 51°23.6 2°53.603 4.7 28 16.9 101520 47
2010-07-01 06:01:45 51°23.62 2°53.602 4.7 235 16.9 101520 47
2010-07-01 06:01:50 51°23.639 2°53.603 5 22 16.9 101510 49
2010-07-01 06:01:55 51°23.658 2°53.602 4.3 239 16.9 101510 49
2010-07-01 06:02:00 51°23.678 2°53.602 4.8 24 16.8 101520 49
2010-07-01 06:02:05 51°23.697 2°53.602 4.8 238 16.8 101520 49
2010-07-01 06:02:10 51°23.717 2°53.602 4.3 24 16.8 101510 47
2010-07-01 06:02:15 51°23.736 2°53.601 4.8 239 16.8 101510 47
2010-07-01 06:02:20 51°23.756 2°53.601 4.7 21 16.8 101510 48
2010-07-01 06:02:25 51°23.775 2°53.601 5.4 35 16.8 101510 48
2010-07-01 06:02:30 51°23.795 2°53.6 5.2 24 16.8 101510 47
2010-07-01 06:02:35 51°23.814 2°53.6 4.6 236 16.8 101510 47
2010-07-01 06:02:40 51°23.834 2°53.6 5 23 16.8 101510 47
2010-07-01 06:02:45 51°23.853 2°53.6 4.7 234 16.8 101510 47
2010-07-01 06:02:50 51°23.873 2°53.6 4.5 20 16.8 101510 48
2010-07-01 06:02:55 51°23.893 2°53.6 4.4 237 16.8 101510 48
2010-07-01 06:03:00 51°23.913 2°53.599 4.5 29 16.8 101510 49
2010-07-01 06:03:05 51°23.932 2°53.599 4.1 233 16.8 101510 49
2010-07-01 06:03:10 51°23.952 2°53.599 4.7 21 16.8 101520 47
2010-07-01 06:03:15 51°23.971 2°53.598 4.7 234 16.8 101520 47
2010-07-01 06:03:20 51°23.991 2°53.598 4.9 23 16.8 101510 48
2010-07-01 06:03:24 51°24.006 2°53.598 4.9 33 16.8 101510 48
2010-07-01 06:03:30 51°24.03 2°53.597 4.7 23 16.8 101510 48
2010-07-01 06:03:35 51°24.05 2°53.597 4.7 34 16.8 101510 48
2010-07-01 06:03:40 51°24.069 2°53.597 4.9 27 16.8 101510 50
2010-07-01 06:03:45 51°24.089 2°53.596 5.7 33 16.8 101510 50
2010-07-01 06:03:50 51°24.108 2°53.595 5.1 24 16.9 101510 48
2010-07-01 06:03:55 51°24.128 2°53.594 5 236 16.9 101510 48
2010-07-01 06:04:00 51°24.147 2°53.594 5.4 27 16.8 101520 47
2010-07-01 06:04:04 51°24.163 2°53.593 5.1 32 16.8 101520 47
2010-07-01 06:04:10 51°24.187 2°53.592 5 22 16.8 101510 48
2010-07-01 06:04:15 51°24.206 2°53.592 4.7 34 16.8 101510 48
2010-07-01 06:04:20 51°24.226 2°53.592 4.9 29 16.8 101510 48
2010-07-01 06:04:24 51°24.242 2°53.592 4.5 34 16.8 101510 48
2010-07-01 06:04:30 51°24.266 2°53.592 5 23 16.8 101510 49
2010-07-01 06:04:35 51°24.285 2°53.592 4.5 234 16.8 101510 49
2010-07-01 06:04:40 51°24.305 2°53.591 4.5 27 16.8 101510 48
2010-07-01 06:04:45 51°24.325 2°53.591 4.9 37 16.8 101510 48
2010-07-01 06:04:50 51°24.344 2°53.591 5.1 21 16.8 101520 50
2010-07-01 06:04:55 51°24.364 2°53.59 4.8 234 16.8 101520 50
2010-07-01 06:05:00 51°24.384 2°53.59 5 26 16.8 101520 48
2010-07-01 06:05:04 51°24.4 2°53.59 5.2 34 16.8 101520 48
2010-07-01 06:05:10 51°24.424 2°53.589 5 26 16.8 101520 48
2010-07-01 06:05:15 51°24.444 2°53.589 4.6 36 16.8 101520 48
2010-07-01 06:05:20 51°24.463 2°53.589 5.1 23 16.8 101510 50
2010-07-01 06:05:25 51°24.483 2°53.589 4.9 37 16.8 101510 50
2010-07-01 06:05:30 51°24.503 2°53.59 5.2 27 16.8 101520 48
2010-07-01 06:05:35 51°24.523 2°53.59 5.2 234 16.8 101520 48
2010-07-01 06:05:40 51°24.543 2°53.59 4.7 27 16.8 101510 48
2010-07-01 06:05:45 51°24.562 2°53.589 4.8 38 16.8 101510 48
2010-07-01 06:05:50 51°24.582 2°53.588 5 29 16.8 101520 49
2010-07-01 06:05:55 51°24.602 2°53.587 4.7 33 16.8 101520 49
2010-07-01 06:06:00 51°24.621 2°53.587 4.9 21 16.7 101510 48
2010-07-01 06:06:05 51°24.641 2°53.586 4.7 31 16.7 101510 48
2010-07-01 06:06:10 51°24.661 2°53.586 4.4 28 16.7 101510 48
2010-07-01 06:06:15 51°24.68 2°53.585 5.4 33 16.7 101510 48
2010-07-01 06:06:20 51°24.7 2°53.585 5.3 23 16.7 101520 50
2010-07-01 06:06:24 51°24.716 2°53.585 5.1 34 16.7 101520 50
2010-07-01 06:06:30 51°24.739 2°53.584 5.2 29 16.7 101520 48
2010-07-01 06:06:35 51°24.759 2°53.582 4.9 235 16.7 101520 48
2010-07-01 06:06:40 51°24.779 2°53.582 5.1 26 16.7 101520 48
2010-07-01 06:06:44 51°24.794 2°53.58 5.6 35 16.7 101520 48
2010-07-01 06:06:50 51°24.818 2°53.58 5.1 27 16.7 101510 48
2010-07-01 06:06:55 51°24.837 2°53.579 5.3 35 16.7 101510 48
2010-07-01 06:07:00 51°24.857 2°53.578 6 26 16.7 101520 48
2010-07-01 06:07:05 51°24.877 2°53.577 5.3 234 16.7 101520 48
2010-07-01 06:07:10 51°24.896 2°53.577 5.4 21 16.7 101520 50
2010-07-01 06:07:15 51°24.916 2°53.576 5 33 16.7 101520 50
2010-07-01 06:07:20 51°24.936 2°53.575 5.7 23 16.7 101510 48
2010-07-01 06:07:24 51°24.951 2°53.575 5.4 35 16.7 101510 48
2010-07-01 06:07:30 51°24.975 2°53.574 5.1 28 16.7 101510 48
2010-07-01 06:07:35 51°24.995 2°53.573 5 31 16.7 101510 48
2010-07-01 06:07:40 51°25.014 2°53.572 5.1 21 16.7 101510 49
2010-07-01 06:07:45 51°25.034 2°53.571 5.5 32 16.7 101510 49
2010-07-01 06:07:50 51°25.053 2°53.57 5 22 16.7 101520 48
2010-07-01 06:07:55 51°25.073 2°53.569 5.4 31 16.7 101520 48
2010-07-01 06:08:00 51°25.092 2°53.567 5.1 26 16.7 101520 48
2010-07-01 06:08:05 51°25.112 2°53.566 5.8 33 16.7 101520 48
2010-07-01 06:08:10 51°25.131 2°53.565 5.4 22 16.7 101510 50
2010-07-01 06:08:15 51°25.151 2°53.564 5.8 36 16.7 101510 50
2010-07-01 06:08:20 51°25.17 2°53.563 5.3 28 16.7 101520 48
2010-07-01 06:08:24 51°25.186 2°53.562 4.7 236 16.7 101520 48
2010-07-01 06:08:30 51°25.209 2°53.561 4.6 23 16.7 101520 49
2010-07-01 06:08:35 51°25.229 2°53.561 5 37 16.7 101520 49
2010-07-01 06:08:40 51°25.248 2°53.56 4.8 28 16.7 101520 49
2010-07-01 06:08:44 51°25.264 2°53.56 5.3 32 16.7 101520 49
2010-07-01 06:08:50 51°25.288 2°53.558 5.1 23 16.7 101520 50
2010-07-01 06:08:55 51°25.307 2°53.557 5.2 233 16.7 101520 50
2010-07-01 06:09:00 51°25.327 2°53.556 5 21 16.7 101520 48
2010-07-01 06:09:05 51°25.346 2°53.555 5 34 16.7 101520 48
2010-07-01 06:09:10 51°25.365 2°53.555 5 29 16.7 101510 48
2010-07-01 06:09:15 51°25.385 2°53.554 5.2 233 16.7 101510 48
2010-07-01 06:09:20 51°25.404 2°53.553 5.7 23 16.7 101520 48
2010-07-01 06:09:25 51°25.424 2°53.553 5 237 16.7 101520 48
2010-07-01 06:09:30 51°25.443 2°53.552 5.1 23 16.7 101520 49
2010-07-01 06:09:35 51°25.463 2°53.551 5.4 237 16.7 101520 49
2010-07-01 06:09:40 51°25.482 2°53.55 5.3 23 16.6 101520 49
2010-07-01 06:09:45 51°25.502 2°53.549 5.6 34 16.6 101520 49
2010-07-01 06:09:50 51°25.521 2°53.548 5.5 24 16.7 101520 48
2010-07-01 06:09:55 51°25.541 2°53.548 5.3 233 16.7 101520 48
2010-07-01 06:10:00 51°25.561 2°53.547 5.3 23 16.6 101520 50
2010-07-01 06:10:05 51°25.581 2°53.547 5.2 237 16.6 101520 50
2010-07-01 06:10:10 51°25.601 2°53.546 5.4 23 16.6 101520 50
2010-07-01 06:10:15 51°25.62 2°53.545 5.6 234 16.6 101520 50
2010-07-01 06:10:20 51°25.64 2°53.544 5.9 24 16.6 101520 49
2010-07-01 06:10:24 51°25.655 2°53.543 5.8 32 16.6 101520 49
2010-07-01 06:10:30 51°25.679 2°53.542 5.5 23 16.6 101520 48
2010-07-01 06:10:35 51°25.699 2°53.541 5 237 16.6 101520 48
2010-07-01 06:10:40 51°25.719 2°53.54 5.5 24 16.6 101510 49
2010-07-01 06:10:45 51°25.738 2°53.539 5.5 238 16.6 101510 49
2010-07-01 06:10:50 51°25.758 2°53.538 5.5 24 16.6 101510 48
2010-07-01 06:10:55 51°25.778 2°53.537 5 35 16.6 101510 48
2010-07-01 06:11:00 51°25.797 2°53.536 5 27 16.6 101520 48
2010-07-01 06:11:04 51°25.813 2°53.535 5.5 33 16.6 101520 48
2010-07-01 06:11:10 51°25.836 2°53.534 5.8 25 16.6 101520 49
2010-07-01 06:11:15 51°25.856 2°53.534 5.1 36 16.6 101520 49
2010-07-01 06:11:20 51°25.875 2°53.533 2.6 22 16.6 101520 49
2010-07-01 06:11:25 51°25.895 2°53.532 5.1 33 16.6 101520 49
2010-07-01 06:11:30 51°25.915 2°53.53 5.4 25 16.6 101520 48
2010-07-01 06:11:35 51°25.934 2°53.53 6.4 237 16.6 101520 48
2010-07-01 06:11:40 51°25.954 2°53.529 5.6 26 16.6 101520 48
2010-07-01 06:11:45 51°25.974 2°53.529 5.3 237 16.6 101520 48
2010-07-01 06:11:50 51°25.993 2°53.527 5.6 25 16.6 101520 49
2010-07-01 06:11:55 51°26.013 2°53.527 5.9 235 16.6 101520 49
2010-07-01 06:12:00 51°26.033 2°53.526 5.7 21 16.6 101510 47
2010-07-01 06:12:05 51°26.052 2°53.526 5.3 239 16.6 101510 47
2010-07-01 06:12:10 51°26.072 2°53.525 5.2 27 16.6 101520 48
2010-07-01 06:12:15 51°26.092 2°53.525 5 236 16.6 101520 48
2010-07-01 06:12:20 51°26.112 2°53.525 4.8 23 16.6 101520 48
2010-07-01 06:12:25 51°26.132 2°53.524 5.6 233 16.6 101520 48
2010-07-01 06:12:30 51°26.152 2°53.524 5.2 24 16.6 101520 49
2010-07-01 06:12:35 51°26.172 2°53.523 5.4 238 16.6 101520 49
2010-07-01 06:12:40 51°26.192 2°53.523 5.1 22 16.6 101520 48
2010-07-01 06:12:45 51°26.212 2°53.522 5.5 34 16.6 101520 48
2010-07-01 06:12:50 51°26.232 2°53.52 6 21 16.6 101520 48
2010-07-01 06:12:55 51°26.252 2°53.52 5.5 235 16.6 101520 48
2010-07-01 06:13:00 51°26.272 2°53.52 5.3 21 16.6 101520 49
2010-07-01 06:13:05 51°26.293 2°53.519 5.1 236 16.6 101520 49
2010-07-01 06:13:10 51°26.312 2°53.519 5.9 23 16.6 101520 48
2010-07-01 06:13:15 51°26.332 2°53.519 5.1 236 16.6 101520 48
2010-07-01 06:13:20 51°26.352 2°53.519 5.4 23 16.6 101510 48
2010-07-01 06:13:24 51°26.368 2°53.519 6.1 239 16.6 101510 48
2010-07-01 06:13:30 51°26.392 2°53.519 5.2 29 16.6 101520 48
2010-07-01 06:13:35 51°26.412 2°53.518 5.6 32 16.6 101520 48
2010-07-01 06:13:40 51°26.432 2°53.518 5.1 27 16.6 101520 47
2010-07-01 06:13:44 51°26.448 2°53.517 4.9 235 16.6 101520 47
2010-07-01 06:13:50 51°26.472 2°53.517 5 29 16.6 101510 49
2010-07-01 06:13:55 51°26.492 2°53.517 5.1 238 16.6 101510 49
2010-07-01 06:14:00 51°26.512 2°53.517 5.3 20 16.6 101520 48
2010-07-01 06:14:05 51°26.532 2°53.517 5.2 238 16.6 101520 48
2010-07-01 06:14:10 51°26.552 2°53.517 5.4 28 16.6 101520 48
2010-07-01 06:14:15 51°26.571 2°53.517 4.7 239 16.6 101520 48
2010-07-01 06:14:20 51°26.591 2°53.517 4.7 22 16.6 101510 48
2010-07-01 06:14:25 51°26.611 2°53.517 5.2 238 16.6 101510 48
2010-07-01 06:14:30 51°26.63 2°53.516 5.3 25 16.6 101520 48
2010-07-01 06:14:35 51°26.65 2°53.516 5 237 16.6 101520 48
2010-07-01 06:14:40 51°26.67 2°53.516 4.9 28 16.6 101520 48
2010-07-01 06:14:45 51°26.689 2°53.516 4.8 237 16.6 101520 48
2010-07-01 06:14:50 51°26.709 2°53.517 4.5 21 16.6 101520 49
2010-07-01 06:14:55 51°26.729 2°53.517 4.4 33 16.6 101520 49
2010-07-01 06:15:00 51°26.748 2°53.519 4.3 29 16.6 101510 48
2010-07-01 06:15:05 51°26.767 2°53.52 4.6 35 16.6 101510 48
2010-07-01 06:15:10 51°26.787 2°53.523 4.2 20 16.6 101510 48
2010-07-01 06:15:15 51°26.806 2°53.523 4.5 235 16.6 101510 48
2010-07-01 06:15:20 51°26.825 2°53.527 4.3 22 16.6 101510 48
2010-07-01 06:15:24 51°26.841 2°53.528 4.5 34 16.6 101510 48
2010-07-01 06:15:30 51°26.864 2°53.531 4.5 29 16.6 101520 48
2010-07-01 06:15:35 51°26.884 2°53.532 4.5 237 16.6 101520 48
2010-07-01 06:15:40 51°26.903 2°53.535 4.6 29 16.7 101510 48
2010-07-01 06:15:44 51°26.919 2°53.537 5 238 16.7 101510 48
2010-07-01 06:15:50 51°26.942 2°53.54 4.8 20 16.7 101510 48
2010-07-01 06:15:55 51°26.961 2°53.543 4.8 235 16.7 101510 48
2010-07-01 06:16:00 51°26.981 2°53.545 4.3 30 16.7 101510 48
2010-07-01 06:16:05 51°27 2°53.547 4.4 32 16.7 101510 48
2010-07-01 06:16:10 51°27.019 2°53.55 4.8 24 16.7 101510 48
2010-07-01 06:16:15 51°27.038 2°53.551 4.3 241 16.7 101510 48
2010-07-01 06:16:20 51°27.058 2°53.553 4.8 26 16.7 101510 49
2010-07-01 06:16:25 51°27.077 2°53.555 4.8 236 16.7 101510 49
2010-07-01 06:16:30 51°27.096 2°53.558 4.8 27 16.6 101510 48
2010-07-01 06:16:35 51°27.116 2°53.559 5 238 16.6 101510 48
2010-07-01 06:16:40 51°27.135 2°53.562 5 30 16.6 101510 48
2010-07-01 06:16:45 51°27.154 2°53.564 4.5 239 16.6 101510 48
2010-07-01 06:16:50 51°27.174 2°53.566 5.2 25 16.7 101510 49
2010-07-01 06:16:55 51°27.193 2°53.568 4.8 239 16.7 101510 49
2010-07-01 06:17:00 51°27.212 2°53.57 5.1 28 16.6 101510 49
2010-07-01 06:17:05 51°27.232 2°53.572 4.4 234 16.6 101510 49
2010-07-01 06:17:10 51°27.252 2°53.575 4.2 23 16.7 101510 47
2010-07-01 06:17:15 51°27.271 2°53.577 5 236 16.7 101510 47
2010-07-01 06:17:20 51°27.291 2°53.579 5.6 21 16.7 101510 46
2010-07-01 06:17:24 51°27.306 2°53.581 4.6 241 16.7 101510 46
2010-07-01 06:17:30 51°27.33 2°53.583 4.5 21 16.7 101510 48
2010-07-01 06:17:35 51°27.349 2°53.586 4.6 235 16.7 101510 48
2010-07-01 06:17:40 51°27.369 2°53.588 4.8 22 16.7 101510 47
2010-07-01 06:17:44 51°27.385 2°53.59 4.4 236 16.7 101510 47
2010-07-01 06:17:50 51°27.409 2°53.593 4.4 28 16.6 101510 49
2010-07-01 06:17:55 51°27.429 2°53.595 4.9 31 16.6 101510 49
2010-07-01 06:18:00 51°27.448 2°53.597 5.4 28 16.6 101510 49
2010-07-01 06:18:05 51°27.468 2°53.6 4.5 239 16.6 101510 49
2010-07-01 06:18:10 51°27.487 2°53.601 5 29 16.7 101510 49
2010-07-01 06:18:15 51°27.507 2°53.604 4.5 239 16.7 101510 49
2010-07-01 06:18:20 51°27.526 2°53.606 4.8 23 16.7 101510 47
2010-07-01 06:18:25 51°27.546 2°53.608 3.8 33 16.7 101510 47
2010-07-01 06:18:30 51°27.566 2°53.61 4.1 23 16.6 101510 47
2010-07-01 06:18:35 51°27.586 2°53.612 4.7 236 16.6 101510 47
2010-07-01 06:18:40 51°27.606 2°53.615 4.5 21 16.6 101500 48
2010-07-01 06:18:45 51°27.625 2°53.617 4.9 237 16.6 101500 48
2010-07-01 06:18:50 51°27.645 2°53.619 4.8 23 16.6 101520 47
2010-07-01 06:18:55 51°27.665 2°53.621 4.9 238 16.6 101520 47
2010-07-01 06:19:00 51°27.685 2°53.623 4.9 26 16.6 101510 47
2010-07-01 06:19:05 51°27.705 2°53.625 4.4 237 16.6 101510 47
2010-07-01 06:19:10 51°27.725 2°53.628 4.5 23 16.6 101510 48
2010-07-01 06:19:15 51°27.745 2°53.629 4.4 33 16.6 101510 48
2010-07-01 06:19:20 51°27.765 2°53.631 4.1 20 16.6 101510 47
2010-07-01 06:19:24 51°27.781 2°53.633 4.5 237 16.6 101510 47
2010-07-01 06:19:30 51°27.804 2°53.635 4.6 29 16.6 101510 47
2010-07-01 06:19:35 51°27.825 2°53.638 4.2 235 16.6 101510 47
2010-07-01 06:19:40 51°27.845 2°53.64 4.7 24 16.6 101510 48
2010-07-01 06:19:44 51°27.861 2°53.643 5 237 16.6 101510 48
2010-07-01 06:19:50 51°27.884 2°53.645 4.6 21 16.6 101510 47
2010-07-01 06:19:55 51°27.903 2°53.648 4.2 235 16.6 101510 47
2010-07-01 06:20:00 51°27.924 2°53.651 4.5 21 16.6 101510 48
2010-07-01 06:20:04 51°27.94 2°53.652 4.6 239 16.6 101510 48
2010-07-01 06:20:10 51°27.963 2°53.655 4.5 28 16.7 101510 48
2010-07-01 06:20:15 51°27.983 2°53.658 4.9 236 16.7 101510 48
2010-07-01 06:20:20 51°28.003 2°53.66 4.6 25 16.6 101520 47
2010-07-01 06:20:25 51°28.023 2°53.662 4.9 235 16.6 101520 47
2010-07-01 06:20:30 51°28.043 2°53.665 4.1 30 16.6 101510 48
2010-07-01 06:20:35 51°28.062 2°53.666 4 240 16.6 101510 48
2010-07-01 06:20:40 51°28.082 2°53.669 4.3 26 16.6 101510 48
2010-07-01 06:20:45 51°28.101 2°53.671 4.5 38 16.6 101510 48
2010-07-01 06:20:50 51°28.121 2°53.673 4.3 27 16.6 101510 49
2010-07-01 06:20:55 51°28.141 2°53.674 4.5 237 16.6 101510 49
2010-07-01 06:21:00 51°28.161 2°53.676 4.5 23 16.6 101510 48
2010-07-01 06:21:05 51°28.18 2°53.678 4.2 31 16.6 101510 48
2010-07-01 06:21:05 51°28.18 2°53.678 4.2 31 16.6 101510 48
2010-07-01 06:21:16 51°28.223 2°53.684 3.6 236 16.6 101510 49
2010-07-01 06:23:38 51°28.771 2°53.876 3.5 26 16.6 101510 48
2010-07-01 06:23:43 51°28.79 2°53.883 3.6 303 16.6 101510 48
2010-07-01 06:23:48 51°28.81 2°53.89 3.4 26 16.6 101510 48
2010-07-01 06:23:52 51°28.825 2°53.896 3.3 301 16.6 101510 48
2010-07-01 06:23:58 51°28.848 2°53.905 3.3 21 16.6 101510 47
2010-07-01 06:24:03 51°28.867 2°53.912 4.1 302 16.6 101510 47
2010-07-01 06:24:08 51°28.887 2°53.919 3.7 29 16.6 101510 49
2010-07-01 06:24:12 51°28.902 2°53.925 3.6 306 16.6 101510 49
2010-07-01 06:24:18 51°28.925 2°53.934 4 21 16.6 101510 47
2010-07-01 06:24:23 51°28.944 2°53.941 3.5 301 16.6 101510 47
2010-07-01 06:24:28 51°28.964 2°53.948 3.2 26 16.6 101510 47
2010-07-01 06:24:32 51°28.979 2°53.954 3.4 306 16.6 101510 47
2010-07-01 06:24:38 51°29.002 2°53.963 3.7 26 16.6 101510 50
2010-07-01 06:24:43 51°29.022 2°53.969 4 302 16.6 101510 50
2010-07-01 06:24:48 51°29.041 2°53.977 3.8 21 16.6 101510 48
2010-07-01 06:24:52 51°29.056 2°53.983 3.3 306 16.6 101510 48
2010-07-01 06:24:58 51°29.079 2°53.993 2.9 25 16.6 101520 48
2010-07-01 06:25:03 51°29.098 2°54 3.1 307 16.6 101520 48
2010-07-01 06:25:08 51°29.118 2°54.007 2.8 23 16.6 101510 48
2010-07-01 06:25:13 51°29.137 2°54.014 3.1 307 16.6 101510 48
2010-07-01 06:25:18 51°29.156 2°54.021 4 23 16.6 101510 47
2010-07-01 06:25:23 51°29.175 2°54.029 3.7 304 16.6 101510 47
2010-07-01 06:25:28 51°29.194 2°54.035 4 243 16.6 101510 48
2010-07-01 06:25:33 51°29.213 2°54.042 3.5 308 16.6 101510 48
2010-07-01 06:25:38 51°29.232 2°54.049 3.5 22 16.6 101520 48
2010-07-01 06:25:43 51°29.251 2°54.056 3.5 302 16.6 101520 48
2010-07-01 06:25:48 51°29.27 2°54.062 3.8 21 16.6 101510 48
2010-07-01 06:25:53 51°29.289 2°54.07 3.7 300 16.6 101510 48
2010-07-01 06:25:58 51°29.308 2°54.077 3.8 247 16.6 101510 48
2010-07-01 06:26:03 51°29.327 2°54.084 3.3 306 16.6 101510 48
2010-07-01 06:26:08 51°29.347 2°54.091 3.7 22 16.6 101520 48
2010-07-01 06:26:12 51°29.362 2°54.097 3.5 307 16.6 101520 48
2010-07-01 06:26:18 51°29.385 2°54.105 3.3 23 16.6 101520 50
2010-07-01 06:26:23 51°29.404 2°54.112 3.7 307 16.6 101520 50
2010-07-01 06:26:28 51°29.423 2°54.12 3.7 30 16.6 101510 49
2010-07-01 06:26:32 51°29.438 2°54.125 2.9 305 16.6 101510 49
2010-07-01 06:26:37 51°29.457 2°54.133 3.7 243 16.6 101510 49
2010-07-01 06:26:43 51°29.48 2°54.141 2.9 307 16.6 101510 49
2010-07-01 06:26:48 51°29.5 2°54.148 3.3 24 16.6 101510 49
2010-07-01 06:26:53 51°29.519 2°54.156 3.5 301 16.6 101510 49
2010-07-01 06:26:58 51°29.538 2°54.163 3.2 24 16.6 101510 48
2010-07-01 06:27:03 51°29.557 2°54.171 3.7 306 16.6 101510 48
2010-07-01 06:27:08 51°29.576 2°54.178 3.1 22 16.6 101510 50
2010-07-01 06:27:13 51°29.596 2°54.186 3.8 303 16.6 101510 50
2010-07-01 06:27:18 51°29.615 2°54.193 3.1 25 16.6 101510 48
2010-07-01 06:27:23 51°29.634 2°54.2 3.5 307 16.6 101510 48
2010-07-01 06:27:28 51°29.653 2°54.207 1.6 30 16.6 101520 49
2010-07-01 06:27:33 51°29.673 2°54.215 3.6 306 16.6 101520 49
2010-07-01 06:27:38 51°29.692 2°54.223 3.3 24 16.6 101510 49
2010-07-01 06:27:43 51°29.711 2°54.23 3.4 307 16.6 101510 49
2010-07-01 06:27:48 51°29.73 2°54.238 3 30 16.6 101510 48
2010-07-01 06:27:53 51°29.75 2°54.245 3.7 300 16.6 101510 48
2010-07-01 06:27:58 51°29.769 2°54.253 3.4 24 16.6 101510 48
2010-07-01 06:28:03 51°29.788 2°54.26 3.6 309 16.6 101510 48
2010-07-01 06:28:08 51°29.807 2°54.268 3.4 21 16.6 101520 48
2010-07-01 06:28:13 51°29.826 2°54.276 3 309 16.6 101520 48
2010-07-01 06:28:18 51°29.846 2°54.283 3.4 29 16.6 101510 48
2010-07-01 06:28:23 51°29.865 2°54.291 3.3 307 16.6 101510 48
2010-07-01 06:28:28 51°29.885 2°54.298 3.6 26 16.6 101520 48
2010-07-01 06:28:32 51°29.9 2°54.305 3.3 305 16.6 101520 48
2010-07-01 06:28:38 51°29.923 2°54.315 3.2 27 16.7 101510 49
2010-07-01 06:28:43 51°29.943 2°54.324 3.1 281 16.7 101510 49
2010-07-01 06:28:48 51°29.962 2°54.332 3 26 16.6 101510 47
2010-07-01 06:28:52 51°29.978 2°54.339 3.1 308 16.6 101510 47
2010-07-01 06:28:58 51°30.001 2°54.349 3.2 243 16.6 101510 47
2010-07-01 06:29:03 51°30.02 2°54.358 3.2 300 16.6 101510 47
2010-07-01 06:29:08 51°30.04 2°54.366 3.2 23 16.6 101510 48
2010-07-01 06:29:13 51°30.059 2°54.375 3.4 305 16.6 101510 48
2010-07-01 06:29:18 51°30.079 2°54.383 3.4 20 16.6 101510 49
2010-07-01 06:29:23 51°30.098 2°54.391 3.1 308 16.6 101510 49
2010-07-01 06:29:28 51°30.118 2°54.4 3.1 21 16.6 101520 47
2010-07-01 06:29:33 51°30.137 2°54.409 3.2 306 16.6 101520 47
2010-07-01 06:29:38 51°30.157 2°54.417 3.2 23 16.6 101510 49
2010-07-01 06:29:43 51°30.176 2°54.426 2.9 303 16.6 101510 49
2010-07-01 06:29:48 51°30.196 2°54.434 3.8 21 16.6 101520 49
2010-07-01 06:29:53 51°30.215 2°54.443 3.4 301 16.6 101520 49
2010-07-01 06:29:58 51°30.235 2°54.451 3.7 23 16.6 101510 48
2010-07-01 06:30:03 51°30.255 2°54.46 3.5 301 16.6 101510 48
2010-07-01 06:30:08 51°30.274 2°54.468 3.2 21 16.6 101510 47
2010-07-01 06:30:13 51°30.294 2°54.477 3.5 301 16.6 101510 47
2010-07-01 06:30:18 51°30.313 2°54.486 3.2 26 16.6 101510 48
2010-07-01 06:30:23 51°30.333 2°54.494 3.2 300 16.6 101510 48
2010-07-01 06:30:28 51°30.353 2°54.502 3.4 23 16.6 101510 47
2010-07-01 06:30:33 51°30.372 2°54.511 3.4 307 16.6 101510 47
2010-07-01 06:30:38 51°30.392 2°54.52 3.7 22 16.6 101510 46
2010-07-01 06:30:43 51°30.412 2°54.529 3.8 307 16.6 101510 46
2010-07-01 06:30:48 51°30.432 2°54.537 3 23 16.6 101510 49
2010-07-01 06:30:52 51°30.447 2°54.544 3 308 16.6 101510 49
2010-07-01 06:30:58 51°30.47 2°54.556 2.8 23 16.6 101510 48
2010-07-01 06:31:03 51°30.49 2°54.564 3.2 301 16.6 101510 48
2010-07-01 06:31:08 51°30.508 2°54.576 2.4 28 16.6 101510 47
2010-07-01 06:31:12 51°30.524 2°54.584 3 303 16.6 101510 47
2010-07-01 06:31:18 51°30.546 2°54.597 2.5 22 16.6 101510 47
2010-07-01 06:31:23 51°30.565 2°54.607 3 301 16.6 101510 47
2010-07-01 06:31:28 51°30.584 2°54.618 2.3 241 16.7 101510 47
2010-07-01 06:31:33 51°30.602 2°54.627 2.7 307 16.7 101510 47
2010-07-01 06:31:38 51°30.618 2°54.637 2.1 251 16.6 101510 49
2010-07-01 06:31:43 51°30.633 2°54.644 2.6 278 16.6 101510 49
2010-07-01 06:31:48 51°30.647 2°54.652 3 254 16.7 101510 48
2010-07-01 06:31:53 51°30.661 2°54.658 2.4 307 16.7 101510 48
2010-07-01 06:31:58 51°30.674 2°54.665 2.8 259 16.6 101510 49
2010-07-01 06:32:03 51°30.686 2°54.671 2.5 303 16.6 101510 49
2010-07-01 06:32:08 51°30.698 2°54.677 1.5 263 16.6 101510 49
2010-07-01 06:32:13 51°30.709 2°54.683 1.5 308 16.6 101510 49
2010-07-01 06:32:18 51°30.72 2°54.689 1.6 263 16.6 101520 48
2010-07-01 06:32:23 51°30.731 2°54.695 2.1 309 16.6 101520 48
2010-07-01 06:32:28 51°30.741 2°54.701 1.8 262 16.6 101520 50